Flag Weather past 2 weeks in Bodø, Norway

Now
43 °F

Passing clouds.


Feels Like: 36 °F
Forecast: 42 / 44 °F
Wind: 12 mph from East

Location: Bodo Vi

Current Time: Nov 27, 2014 at 5:36:21 AM

Latest Report: Nov 27, 2014 at 4:50 AM


Visibility: N/A

Pressure: 30.01 "Hg

Humidity: 66%

Dew point: 32 °F

Location of BodøLocation

Historic Weather in Bodø — Graph

°F

Bodø temperature yesterday

Maximum temperature yesterday: 46 °F (at 4:50 AM)
Minimum temperature yesterday: 39 °F (at 12:50 AM)
Average temperature yesterday: 44 °F

Past Weeks' High & Low Weather Summary

 TemperatureHumidityPressure
High46 °F (Nov 21, 1:50 PM)100% (Nov 20, 7:20 PM)30.45 "Hg (Nov 20, 7:20 PM)
Low27 °F (Nov 14, 4:50 AM)44% (Nov 14, 1:50 PM)29.77 "Hg (Nov 24, 3:20 PM)
Average38 °F78%30.19 "Hg
* Reported Nov 12 3:50 AM — Nov 27 3:50 AM, Bodø, Weather by CustomWeather, © 2014

Note: Actual official high and low records may vary slightly from our data, if they occured in-between our weather recording intervals... More about our weather records

Advertising

Bodø weather history for previous 24 hours

 ConditionsComfort  
Time TempWeatherWind HumidityBarometerVisibility
3:50 AM
Nov 27
43 °FPassing clouds.7 mph66%30.01 "HgN/A
2:50 AM41 °FPassing clouds.14 mph76%30.04 "HgN/A
1:50 AM43 °FPassing clouds.17 mph71%30.04 "HgN/A
12:50 AM41 °FPassing clouds.18 mph87%30.04 "HgN/A
11:50 PM
Nov 26
43 °FPassing clouds.23 mph81%30.04 "HgN/A
11:20 PM41 °FPassing clouds.21 mph87%30.07 "HgN/A
10:50 PM41 °FPassing clouds.18 mph81%30.07 "HgN/A
10:20 PM41 °FPassing clouds.18 mph87%30.09 "HgN/A
9:50 PM41 °FPassing clouds.13 mph93%30.09 "HgN/A
9:20 PM41 °FPassing clouds.9 mph87%30.09 "HgN/A
8:50 PM41 °FPassing clouds.10 mph93%30.12 "HgN/A
8:20 PM41 °FPassing clouds.12 mph93%30.12 "HgN/A
7:50 PM43 °FPassing clouds.10 mph93%30.15 "HgN/A
7:20 PM43 °FPassing clouds.9 mph93%30.15 "HgN/A
6:50 PM43 °FPassing clouds.9 mph100%30.15 "HgN/A
6:20 PM45 °FPassing clouds.12 mph93%30.15 "HgN/A
5:50 PM45 °FPassing clouds.6 mph87%30.15 "HgN/A
5:20 PM45 °FPassing clouds.6 mph87%30.15 "HgN/A
4:50 PM45 °FPartly cloudy.6 mph93%30.15 "HgN/A
4:20 PM45 °FPartly cloudy.7 mph87%30.15 "HgN/A
3:50 PM45 °FPassing clouds.6 mph93%30.15 "HgN/A
3:20 PM45 °FPartly cloudy.10 mph93%30.18 "HgN/A
2:50 PM45 °FPassing clouds.13 mph93%30.18 "HgN/A
2:20 PM45 °FSprinkles. Passing clouds.17 mph87%30.15 "HgN/A
1:50 PM46 °FPassing clouds.16 mph87%30.15 "HgN/A
1:20 PM46 °FPartly sunny.14 mph93%30.15 "HgN/A
12:50 PM46 °FPartly sunny.9 mph93%30.15 "HgN/A
12:20 PM46 °FScattered showers. Broken clouds.14 mph93%30.15 "HgN/A
11:50 AM46 °FSprinkles. Partly sunny.16 mph87%30.12 "HgN/A
11:20 AM46 °FScattered showers. Partly sunny.13 mph100%30.12 "HgN/A
10:50 AM46 °FRain showers. Scattered clouds.13 mph100%30.12 "HgN/A
10:20 AM46 °FSprinkles. Partly sunny.16 mph93%30.12 "HgN/A
9:50 AM46 °FSprinkles. Passing clouds.14 mph93%30.12 "HgN/A
9:20 AM46 °FScattered showers. Passing clouds.12 mph93%30.09 "HgN/A
8:50 AM46 °FSprinkles. Passing clouds.15 mph93%30.09 "HgN/A
8:20 AM46 °FScattered showers. Passing clouds.13 mph93%30.09 "HgN/A
7:50 AM45 °FSprinkles. Passing clouds.13 mph100%30.07 "HgN/A
7:20 AM46 °FPassing clouds.16 mph93%30.07 "HgN/A
6:50 AM46 °FPassing clouds.16 mph87%30.04 "HgN/A
6:20 AM46 °FPassing clouds.14 mph87%30.04 "HgN/A
5:50 AM46 °FScattered showers. Passing clouds.16 mph93%30.04 "HgN/A
5:20 AM46 °FScattered showers. Passing clouds.21 mph93%30.01 "HgN/A
Weather by CustomWeather, © 2014

See weather overviewHow to use our weather pages